(456669) = 1996 RL17 = 2007 RJ78

Discovered at Mount Lemmon on 2007-09-10 by Mt. Lemmon Survey.

Orbit

Orbit type: Main Belt

Note: WebGL enabled browser required.

epoch2023-09-13.0
epoch JD2460200.5
perihelion date2022-10-06.07325
perihelion JD2459858.57325
argument of perihelion (°)218.20789
ascending node (°)174.05293
inclination (°)3.92746
eccentricity0.2136971
perihelion distance (AU)1.8762564
Tisserand w.r.t. Jupiter3.5
ΔV w.r.t. Earth (km/sec)8.6
semimajor axis (AU)2.3861751
mean anomaly (°)91.42889
mean daily motion (°/day)0.26739320
aphelion distance (AU)2.896
period (years)3.69
P-vector [x]0.84547653
P-vector [y]0.50525431
P-vector [z]0.17288004
Q-vector [x]-0.53396542
Q-vector [y]0.79557212
Q-vector [z]0.28626201
absolute magnitude18.57
phase slope0.15
uncertainty0
referenceMPEC 2023-Y63
observations used93
oppositions7
arc length (days)9618
first opposition used1996
last opposition used2023
residual rms (arc-secs)0.36
perturbers coarse indicatorM-v
perturbers precise indicator003Ek
first observation date used1996-09-13.0
last observation date used2023-01-13.0
computer nameMPCLINUX
JD of orbit computation2457431.067822
perihelion JD uncertainty (days)9.5330E-05
argument of perihelion uncertainty (°)6.8878E-05
ascending node uncertainty (°)6.0452E-05
inclination uncertainty (°)5.6665E-06
eccentricity uncertainty 5.4448E-08
perihelion distance uncertainty (AU)1.2547E-07
Minimum Orbit Intersection Distances (in AU)
for orbit epoch: 2460200.5, reference: E2023-Y63
Mercury1.54599
Venus1.1521
Earth0.8829
Mars0.42966
Jupiter2.53855
Saturn6.72882
Uranus15.6661
Neptune27.8163

Observations

94 total observations over interval: 1996 09 13.34953 – 2023 01 13.180174
These data are available for download (format description).

Date (UT) J2000 RA J2000 Dec Magn Location Ref
1996 09 13.34953 00 00 56.42 -00 04 29.8 20.7 V 691 – Steward Observatory, Kitt Peak-Spacewatch MPC 27857
1996 09 13.37070 00 00 55.47 -00 04 40.1   691 – Steward Observatory, Kitt Peak-Spacewatch MPC 27857
1996 09 13.39198 00 00 54.51 -00 04 50.6   691 – Steward Observatory, Kitt Peak-Spacewatch MPC 27857
1996 09 22.37785 23 54 17.05 -01 21 02.4   691 – Steward Observatory, Kitt Peak-Spacewatch MPC 27857
1996 09 22.40770 23 54 15.60 -01 21 17.7 20.4 V 691 – Steward Observatory, Kitt Peak-Spacewatch MPC 27857
1996 09 22.43227 23 54 14.45 -01 21 30.6   691 – Steward Observatory, Kitt Peak-Spacewatch MPC 27857
2007 09 10.28811 22 52 40.08 -05 45 23.9 20.4 V G96 – Mt. Lemmon Survey MPS 216408
2007 09 10.29519 22 52 39.72 -05 45 27.3 20.2 V G96 – Mt. Lemmon Survey MPS 216408
2007 09 10.30224 22 52 39.36 -05 45 30.7 20.2 V G96 – Mt. Lemmon Survey MPS 216408
2007 09 10.30931 22 52 38.96 -05 45 34.3 20.2 V G96 – Mt. Lemmon Survey MPS 216408
2007 09 10.36249 22 52 36.26 -05 46 01.0 19.2 V G96 – Mt. Lemmon Survey MPS 216408
2007 09 10.36669 22 52 36.01 -05 46 03.2 18.8 V G96 – Mt. Lemmon Survey MPS 216408
2007 09 10.37090 22 52 35.83 -05 46 04.5 19.0 V G96 – Mt. Lemmon Survey MPS 216408
2007 09 10.37509 22 52 35.58 -05 46 06.7 20.2 V G96 – Mt. Lemmon Survey MPS 216408
2007 09 11.16315 22 51 58.30 -05 52 37.5 20.8 V 691 – Steward Observatory, Kitt Peak-Spacewatch MPS 216408
2007 09 11.18072 22 51 57.41 -05 52 46.2 20.5 V 691 – Steward Observatory, Kitt Peak-Spacewatch MPS 216408
2007 09 11.20176 22 51 56.36 -05 52 56.6 20.7 V 691 – Steward Observatory, Kitt Peak-Spacewatch MPS 216408
2007 09 11.26692 22 51 53.02 -05 53 28.9   291 – LPL/Spacewatch II MPS 216408
2007 09 11.27180 22 51 52.78 -05 53 31.3   291 – LPL/Spacewatch II MPS 216408
2007 09 11.27695 22 51 52.51 -05 53 34.1   291 – LPL/Spacewatch II MPS 216408
2007 09 12.23341 22 51 06.94 -06 01 27.8 20.1 V G96 – Mt. Lemmon Survey MPS 218788
2007 09 12.23862 22 51 06.73 -06 01 30.2 20.4 V G96 – Mt. Lemmon Survey MPS 218788
2007 09 12.24397 22 51 06.44 -06 01 32.9 20.2 V G96 – Mt. Lemmon Survey MPS 218788
2007 09 12.24924 22 51 06.15 -06 01 35.4 20.4 V G96 – Mt. Lemmon Survey MPS 218788
2007 09 15.16322 22 48 49.71 -06 25 26.6   691 – Steward Observatory, Kitt Peak-Spacewatch MPS 216408
2007 09 15.18081 22 48 48.90 -06 25 34.9   691 – Steward Observatory, Kitt Peak-Spacewatch MPS 216408
2007 09 15.19593 22 48 48.18 -06 25 42.4   691 – Steward Observatory, Kitt Peak-Spacewatch MPS 216408
2007 10 08.19896 22 36 37.62 -08 56 41.4 21.0 V G96 – Mt. Lemmon Survey MPS 286956
2007 10 08.20552 22 36 37.54 -08 56 42.6 21.4 V G96 – Mt. Lemmon Survey MPS 286956
2007 10 08.21205 22 36 37.40 -08 56 44.8 21.1 V G96 – Mt. Lemmon Survey MPS 286956
2007 10 08.21865 22 36 37.33 -08 56 46.6 21.0 V G96 – Mt. Lemmon Survey MPS 286956
2011 10 26.42139 04 29 05.863 +15 31 17.64 21.3 w F51 – Pan-STARRS 1, Haleakala MPS 396361
2011 10 26.43591 04 29 05.563 +15 31 13.90 21.2 w F51 – Pan-STARRS 1, Haleakala MPS 396361
2011 10 26.45046 04 29 05.263 +15 31 10.05 21.5 w F51 – Pan-STARRS 1, Haleakala MPS 396361
2011 10 26.46503 04 29 04.958 +15 31 06.17 21.2 w F51 – Pan-STARRS 1, Haleakala MPS 396361
2011 11 27.29738 04 05 26.12 +13 11 23.2 19.6 V G96 – Mt. Lemmon Survey MPS 402412
2011 11 27.30596 04 05 25.62 +13 11 21.2 19.9 V G96 – Mt. Lemmon Survey MPS 402412
2011 11 27.31464 04 05 25.11 +13 11 19.6 19.6 V G96 – Mt. Lemmon Survey MPS 402412
2011 11 27.32330 04 05 24.57 +13 11 17.9 19.9 V G96 – Mt. Lemmon Survey MPS 402412
2016 01 04.54539 08 31 13.596 +13 02 49.21 21.7 w F51 – Pan-STARRS 1, Haleakala MPS 665485
2016 01 04.55678 08 31 12.969 +13 02 51.46 21.5 w F51 – Pan-STARRS 1, Haleakala MPS 665485
2016 01 04.56820 08 31 12.333 +13 02 53.65 21.6 w F51 – Pan-STARRS 1, Haleakala MPS 665485
2016 01 04.57961 08 31 11.690 +13 02 55.92 21.6 w F51 – Pan-STARRS 1, Haleakala MPS 665485
2016 02 12.29917 07 53 46.870 +16 03 30.79 21.5 w F51 – Pan-STARRS 1, Haleakala MPS 679067
2016 02 12.31115 07 53 46.338 +16 03 34.19 21.6 w F51 – Pan-STARRS 1, Haleakala MPS 679067
2016 02 12.32326 07 53 45.781 +16 03 37.21 21.7 w F51 – Pan-STARRS 1, Haleakala MPS 679067
2018 08 11.49411 22 12 31.738 -07 17 37.12 20.9 w F51 – Pan-STARRS 1, Haleakala MPS 910922
2018 08 11.50610 22 12 31.166 -07 17 41.49 20.8 w F51 – Pan-STARRS 1, Haleakala MPS 910922
2018 08 11.51810 22 12 30.609 -07 17 45.63 21.0 w F51 – Pan-STARRS 1, Haleakala MPS 910922
2018 08 11.53018 22 12 30.031 -07 17 49.88 20.3 w F51 – Pan-STARRS 1, Haleakala MPS 910922
2018 08 17.39549 22 07 51.899 -07 55 22.61 20.7 w F51 – Pan-STARRS 1, Haleakala MPS 910922
2018 08 17.40649 22 07 51.310 -07 55 27.06 20.6 w F51 – Pan-STARRS 1, Haleakala MPS 910922
2018 08 17.41752 22 07 50.729 -07 55 31.61 20.7 w F51 – Pan-STARRS 1, Haleakala MPS 910922
2018 08 17.42896 22 07 50.125 -07 55 36.26 20.6 w F51 – Pan-STARRS 1, Haleakala MPS 910922
2018 09 07.20616 21 50 25.78 -10 27 18.4 21.1 G G96 – Mt. Lemmon Survey MPS 914511
2018 09 07.21181 21 50 25.56 -10 27 21.3 21.2 G G96 – Mt. Lemmon Survey MPS 914511
2018 09 07.21746 21 50 25.22 -10 27 23.7 20.4 G G96 – Mt. Lemmon Survey MPS 914511
2018 09 07.22311 21 50 24.89 -10 27 26.1   G96 – Mt. Lemmon Survey MPS 914511
2018 09 15.15848 21 45 12.18 -11 20 47.3 21.6 G G96 – Mt. Lemmon Survey MPS 921798
2018 09 15.16979 21 45 11.79 -11 20 51.2 20.5 G G96 – Mt. Lemmon Survey MPS 921798
2018 09 15.17543 21 45 11.44 -11 20 53.6   G96 – Mt. Lemmon Survey MPS 921798
2020 01 03.47297 11 11 49.19 +02 38 28.3 23.6 g T09 – Subaru Telescope, Maunakea MPS 2091947
2020 01 03.53378 11 11 49.79 +02 38 25.1 23.5 g T09 – Subaru Telescope, Maunakea MPS 2091947
2020 01 03.54710 11 11 49.93 +02 38 24.4 23.5 g T09 – Subaru Telescope, Maunakea MPS 2091947
2020 01 03.56825 11 11 50.12 +02 38 23.2 23.5 g T09 – Subaru Telescope, Maunakea MPS 2091947
2020 01 03.58092 11 11 50.24 +02 38 22.7 23.6 g T09 – Subaru Telescope, Maunakea MPS 2091947
2020 01 03.60236 11 11 50.44 +02 38 21.4 23.8 g T09 – Subaru Telescope, Maunakea MPS 2091947
2022 09 25.474542 03 21 33.273 +14 30 07.39 21.15 w F51 – Pan-STARRS 1, Haleakala MPS 1663177
2022 09 25.486465 03 21 33.506 +14 30 05.29 21.11 w F51 – Pan-STARRS 1, Haleakala MPS 1663177
2022 09 25.498435 03 21 33.739 +14 30 03.35 21.18 w F51 – Pan-STARRS 1, Haleakala MPS 1663177
2022 09 25.510418 03 21 33.966 +14 30 01.26 21.01 w F51 – Pan-STARRS 1, Haleakala MPS 1663177
2022 10 17.418214 03 20 41.687 +12 52 06.20 20.46 G G96 – Mt. Lemmon Survey MPS 1684739
2022 10 17.423352 03 20 41.550 +12 52 04.51 20.43 G G96 – Mt. Lemmon Survey MPS 1684739
2022 10 17.428485 03 20 41.388 +12 52 02.64 20.44 G G96 – Mt. Lemmon Survey MPS 1684739
2022 10 17.433622 03 20 41.237 +12 52 00.70 20.21 G G96 – Mt. Lemmon Survey MPS 1684739
2022 11 01.341483 03 11 02.708 +11 19 25.73 20.12 w F52 – Pan-STARRS 2, Haleakala MPS 1700178
2022 11 01.352242 03 11 02.152 +11 19 21.89 20.27 w F52 – Pan-STARRS 2, Haleakala MPS 1700178
2022 11 01.362986 03 11 01.598 +11 19 17.84 20.19 w F52 – Pan-STARRS 2, Haleakala MPS 1700178
2022 11 01.373726 03 11 01.040 +11 19 13.91 20.12 w F52 – Pan-STARRS 2, Haleakala MPS 1700178
2022 11 17.300387 02 57 34.500 +09 49 54.68 20.27 w F52 – Pan-STARRS 2, Haleakala MPS 1715627
2022 11 17.300467 02 57 34.078 +09 49 52.50 20.16 G G96 – Mt. Lemmon Survey MPS 1715627
2022 11 17.305676 02 57 33.772 +09 49 51.92 20.24 G G96 – Mt. Lemmon Survey MPS 1715627
2022 11 17.310524 02 57 33.979 +09 49 52.03 20.19 w F52 – Pan-STARRS 2, Haleakala MPS 1715627
2022 11 17.310871 02 57 33.502 +09 49 50.27 20.07 G G96 – Mt. Lemmon Survey MPS 1715627
2022 11 17.316064 02 57 33.224 +09 49 48.61 20.21 G G96 – Mt. Lemmon Survey MPS 1715627
2022 11 17.320655 02 57 33.440 +09 49 49.32 20.17 w F52 – Pan-STARRS 2, Haleakala MPS 1715627
2022 12 14.227559 02 44 40.499 +09 04 20.78 20.77 w F52 – Pan-STARRS 2, Haleakala MPS 1725823
2022 12 14.238400 02 44 40.442 +09 04 21.71 21.09 w F52 – Pan-STARRS 2, Haleakala MPS 1725823
2022 12 14.249225 02 44 40.377 +09 04 22.50 20.97 w F52 – Pan-STARRS 2, Haleakala MPS 1725823
2022 12 14.260110 02 44 40.307 +09 04 23.46 21.08 w F52 – Pan-STARRS 2, Haleakala MPS 1725823
2023 01 13.163356 02 57 50.468 +11 04 50.41 21.26 G G96 – Mt. Lemmon Survey MPS 1736565
2023 01 13.168963 02 57 50.756 +11 04 51.96 21.97 G G96 – Mt. Lemmon Survey MPS 1736565
2023 01 13.174568 02 57 50.998 +11 04 55.24 20.53 G G96 – Mt. Lemmon Survey MPS 1736565
2023 01 13.180174 02 57 51.347 +11 04 56.14 21.10 G G96 – Mt. Lemmon Survey MPS 1736565